(267517) = 1997 AN25 = 1999 XW154 = 2002 NQ70

Discovered at Palomar on 2002-07-09 by NEAT.

Orbit

Orbit type: Main Belt

Note: WebGL enabled browser required.

epoch2023-09-13.0
epoch JD2460200.5
perihelion date2020-04-30.41736
perihelion JD2458969.91736
argument of perihelion (°)262.08794
ascending node (°)116.91571
inclination (°)3.54250
eccentricity0.2509251
perihelion distance (AU)1.7122175
Tisserand w.r.t. Jupiter3.6
ΔV w.r.t. Earth (km/sec)8.2
semimajor axis (AU)2.2857759
mean anomaly (°)350.96527
mean daily motion (°/day)0.28520250
aphelion distance (AU)2.859
period (years)3.46
P-vector [x]0.94381033
P-vector [y]0.32231628
P-vector [z]0.07303618
Q-vector [x]-0.32586279
Q-vector [y]0.87075137
Q-vector [z]0.36824652
absolute magnitude17.32
phase slope0.15
uncertainty0
referenceMPEC 2024-A65
observations used543
oppositions15
arc length (days)9857
first opposition used1997
last opposition used2024
residual rms (arc-secs)0.71
perturbers coarse indicatorM-v
perturbers precise indicator003Ek
first observation date used1997-01-09.0
last observation date used2024-01-05.0
computer nameMPCLINUX
JD of orbit computation2456700.169077
perihelion JD uncertainty (days)8.1421E-05
argument of perihelion uncertainty (°)7.4479E-05
ascending node uncertainty (°)6.9783E-05
inclination uncertainty (°)1.1416E-05
eccentricity uncertainty 4.5324E-08
perihelion distance uncertainty (AU)1.0035E-07
Minimum Orbit Intersection Distances (in AU)
for orbit epoch: 2460200.5, reference: E2023-W14
Mercury1.36788
Venus0.98706
Earth0.71799
Mars0.29629
Jupiter2.59751
Saturn6.68571
Uranus15.6556
Neptune27.8403

Observations

553 total observations over interval: 1997 01 09.51748 – 2024 01 05.270142
These data are available for download (format description).

Date (UT) J2000 RA J2000 Dec Magn Location Ref
1997 01 09.51748 10 32 19.80 +11 15 26.6 21.8 V 691 – Steward Observatory, Kitt Peak-Spacewatch MPC 54920
1997 01 09.53536 10 32 19.37 +11 15 31.2 21.5 V 691 – Steward Observatory, Kitt Peak-Spacewatch MPC 54920
1997 01 09.55359 10 32 19.00 +11 15 35.3 20.9 V 691 – Steward Observatory, Kitt Peak-Spacewatch MPC 54920
1999 12 08.32119 05 08 15.71 +18 05 28.9 18.6   704 – Lincoln Laboratory ETS, New Mexico MPS 9051
1999 12 08.35858 05 08 13.07 +18 05 32.1 19.2   704 – Lincoln Laboratory ETS, New Mexico MPS 9051
1999 12 08.37105 05 08 12.16 +18 05 33.3 19.0   704 – Lincoln Laboratory ETS, New Mexico MPS 9051
1999 12 14.23087 05 01 42.48 +18 13 54.7 18.7   704 – Lincoln Laboratory ETS, New Mexico MPS 9051
1999 12 14.24536 05 01 41.51 +18 13 56.4 19.1   704 – Lincoln Laboratory ETS, New Mexico MPS 9051
1999 12 14.27452 05 01 39.46 +18 13 58.4 19.0   704 – Lincoln Laboratory ETS, New Mexico MPS 9051
2000 01 06.16788 04 43 48.27 +19 04 12.9   704 – Lincoln Laboratory ETS, New Mexico MPS 407119
2000 01 06.18247 04 43 47.95 +19 04 15.1   704 – Lincoln Laboratory ETS, New Mexico MPS 407119
2000 01 06.21168 04 43 47.22 +19 04 20.6   704 – Lincoln Laboratory ETS, New Mexico MPS 407119
2002 06 16.41191 20 40 32.99 -17 29 13.3 20.3 R 644 – Palomar Mountain/NEAT MPS 307235
2002 06 16.42240 20 40 32.95 -17 29 14.1 20.3 R 644 – Palomar Mountain/NEAT MPS 307235
2002 06 16.42586 20 40 32.95 -17 29 14.6   644 – Palomar Mountain/NEAT MPS 307235
2002 06 16.43277 20 40 32.89 -17 29 14.8 20.3 R 644 – Palomar Mountain/NEAT MPS 307235
2002 06 16.43622 20 40 32.93 -17 29 15.4 20.1 R 644 – Palomar Mountain/NEAT MPS 307235
2002 06 16.44672 20 40 32.84 -17 29 16.4   644 – Palomar Mountain/NEAT MPS 307235
2002 06 25.38992 20 39 02.72 -17 51 08.2   644 – Palomar Mountain/NEAT MPS 307235
2002 07 04.36661 20 34 56.71 -18 25 27.1 19.9 R 644 – Palomar Mountain/NEAT MPS 307235
2002 07 04.38870 20 34 55.84 -18 25 32.6 19.1 R 644 – Palomar Mountain/NEAT MPS 307235
2002 07 04.41221 20 34 54.93 -18 25 39.2   644 – Palomar Mountain/NEAT MPS 307235
2002 07 09.28448 20 31 39.05 -18 48 58.3 19.4 R 644 – Palomar Mountain/NEAT MPS 307235
2002 07 09.36722 20 31 35.09 -18 49 23.9 19.3 R 644 – Palomar Mountain/NEAT MPS 307235
2002 07 09.43345 20 31 31.96 -18 49 44.3 19.3 R 644 – Palomar Mountain/NEAT MPS 307235
2002 07 14.31598 20 27 35.97 -19 15 52.5   644 – Palomar Mountain/NEAT MPS 307235
2002 07 14.34541 20 27 34.36 -19 16 01.6   644 – Palomar Mountain/NEAT MPS 307235
2002 07 14.39190 20 27 31.83 -19 16 17.4   644 – Palomar Mountain/NEAT MPS 307235
2002 07 22.22233 20 20 11.20 -20 01 55.5 19.3 R 644 – Palomar Mountain/NEAT MPS 307235
2002 07 22.24292 20 20 09.90 -20 02 03.0 19.4 R 644 – Palomar Mountain/NEAT MPS 307235
2002 07 22.26377 20 20 08.65 -20 02 10.9 19.6 R 644 – Palomar Mountain/NEAT MPS 307235
2002 08 08.17549 20 02 56.31 -21 40 53.9 19.1 R 644 – Palomar Mountain/NEAT MPS 307235
2002 08 08.21781 20 02 53.77 -21 41 07.8 19.3 R 644 – Palomar Mountain/NEAT MPS 307235
2002 08 13.22576 19 58 21.92 -22 06 36.4   704 – Lincoln Laboratory ETS, New Mexico MPS 407119
2002 08 13.25677 19 58 20.26 -22 06 43.6   704 – Lincoln Laboratory ETS, New Mexico MPS 407119
2002 08 13.28774 19 58 18.58 -22 06 52.7   704 – Lincoln Laboratory ETS, New Mexico MPS 407119
2002 08 29.15098 19 48 52.62 -23 06 36.6 19.6 R 644 – Palomar Mountain/NEAT MPS 307235
2002 08 29.17144 19 48 52.18 -23 06 40.2   644 – Palomar Mountain/NEAT MPS 307235
2002 08 29.19288 19 48 51.71 -23 06 43.9 19.9 R 644 – Palomar Mountain/NEAT MPS 307235
2006 12 14.33275 06 42 27.89 +20 05 31.5   704 – Lincoln Laboratory ETS, New Mexico MPS 407119
2006 12 14.34594 06 42 26.99 +20 05 34.0   704 – Lincoln Laboratory ETS, New Mexico MPS 407119
2006 12 14.35913 06 42 26.13 +20 05 35.5   704 – Lincoln Laboratory ETS, New Mexico MPS 407119
2006 12 14.37232 06 42 25.35 +20 05 38.2   704 – Lincoln Laboratory ETS, New Mexico MPS 407119
2006 12 22.20091 06 33 28.95 +20 31 04.2   691 – Steward Observatory, Kitt Peak-Spacewatch MPS 308585
2006 12 22.22176 06 33 27.40 +20 31 08.8   691 – Steward Observatory, Kitt Peak-Spacewatch MPS 308585
2006 12 22.23918 06 33 26.13 +20 31 12.3   691 – Steward Observatory, Kitt Peak-Spacewatch MPS 308585
2009 07 27.36241 21 53 30.66 -15 06 39.4 19.3 V 703 – Catalina Sky Survey MPS 308585
2009 07 27.37089 21 53 30.44 -15 06 42.1 18.6 V 703 – Catalina Sky Survey MPS 308585
2009 07 27.37936 21 53 30.04 -15 06 45.4 19.0 V 703 – Catalina Sky Survey MPS 308585
2009 07 27.38785 21 53 29.79 -15 06 48.9 19.2 V 703 – Catalina Sky Survey MPS 308585
2009 08 15.34171 21 39 30.20 -17 25 59.5 18.7   704 – Lincoln Laboratory ETS, New Mexico MPS 311153
2009 08 15.35377 21 39 29.35 -17 26 05.8 19.0   704 – Lincoln Laboratory ETS, New Mexico MPS 311153
2009 08 15.36581 21 39 28.66 -17 26 10.7 19.3   704 – Lincoln Laboratory ETS, New Mexico MPS 311153
2009 08 15.37790 21 39 28.03 -17 26 17.1 19.0   704 – Lincoln Laboratory ETS, New Mexico MPS 311153
2009 08 15.38994 21 39 27.41 -17 26 22.5 19.4   704 – Lincoln Laboratory ETS, New Mexico MPS 311153
2009 08 20.86698 21 34 36.18 -18 07 43.0 18.7 V J75 – OAM Observatory, La Sagra MPS 308585
2009 08 20.88042 21 34 35.48 -18 07 49.2 18.4 V J75 – OAM Observatory, La Sagra MPS 308585
2009 08 20.89387 21 34 34.70 -18 07 54.9 18.7 V J75 – OAM Observatory, La Sagra MPS 308585
2009 08 22.19282 21 33 25.77 -18 17 18.3 19.1   704 – Lincoln Laboratory ETS, New Mexico MPS 311153
2009 08 22.20548 21 33 25.05 -18 17 24.8 19.0   704 – Lincoln Laboratory ETS, New Mexico MPS 311153
2009 08 22.23086 21 33 23.65 -18 17 35.4 18.9   704 – Lincoln Laboratory ETS, New Mexico MPS 311153
2009 09 11.57632 21 19 19.74 -20 08 11.7 19.0 V E12 – Siding Spring Survey MPS 308585
2009 09 11.58553 21 19 19.52 -20 08 13.4 18.9 V E12 – Siding Spring Survey MPS 308585
2009 09 11.59480 21 19 19.20 -20 08 15.7 19.2 V E12 – Siding Spring Survey MPS 308585
2009 09 11.60399 21 19 18.94 -20 08 17.4 18.8 V E12 – Siding Spring Survey MPS 308585
2011 01 28.40593 11 37 07.17 +06 02 18.5 21.4 V 691 – Steward Observatory, Kitt Peak-Spacewatch MPS 366933
2011 01 28.42365 11 37 06.73 +06 02 23.2 20.9 V 691 – Steward Observatory, Kitt Peak-Spacewatch MPS 366933
2011 01 28.44138 11 37 06.33 +06 02 27.9 20.7 V 691 – Steward Observatory, Kitt Peak-Spacewatch MPS 366933
2011 03 04.39472 11 10 37.66 +09 45 18.2 20.9 V G96 – Mt. Lemmon Survey MPS 371950
2011 03 04.39530 11 10 37.63 +09 45 18.5 20.4 V G96 – Mt. Lemmon Survey MPS 371950
2011 03 04.40273 11 10 37.16 +09 45 21.6 20.8 V G96 – Mt. Lemmon Survey MPS 371950
2011 03 04.40941 11 10 36.84 +09 45 24.3 21.0 V G96 – Mt. Lemmon Survey MPS 371950
2011 03 04.40999 11 10 36.73 +09 45 24.2 20.8 V G96 – Mt. Lemmon Survey MPS 371950
2011 03 04.41678 11 10 36.37 +09 45 27.3 20.8 V G96 – Mt. Lemmon Survey MPS 371950
2011 03 04.41737 11 10 36.26 +09 45 28.1 20.5 V G96 – Mt. Lemmon Survey MPS 371950
2011 03 14.23123 11 01 02.31 +10 50 41.4 20.7 V G96 – Mt. Lemmon Survey MPS 374779
2011 03 14.23856 11 01 01.88 +10 50 44.1 20.2 V G96 – Mt. Lemmon Survey MPS 374779
2011 03 14.24605 11 01 01.45 +10 50 46.8 20.6 V G96 – Mt. Lemmon Survey MPS 374779
2011 03 14.25356 11 01 01.02 +10 50 49.7 20.6 V G96 – Mt. Lemmon Survey MPS 374779
2012 05 29.30763 16 35 08.12 -17 36 35.6 19.6 V G96 – Mt. Lemmon Survey MPS 426434
2012 05 29.31344 16 35 07.69 -17 36 35.2 19.7 V G96 – Mt. Lemmon Survey MPS 426434
2012 05 29.31929 16 35 07.29 -17 36 34.8 19.7 V G96 – Mt. Lemmon Survey MPS 426434
2012 05 29.32514 16 35 06.90 -17 36 34.0 19.8 V G96 – Mt. Lemmon Survey MPS 426434
2012 06 09.24906 16 23 04.41 -17 20 15.9 20.0 V G96 – Mt. Lemmon Survey MPS 427223
2012 06 09.25728 16 23 03.87 -17 20 15.1 20.2 V G96 – Mt. Lemmon Survey MPS 427223
2012 06 09.26549 16 23 03.30 -17 20 14.8 20.4 V G96 – Mt. Lemmon Survey MPS 427223
2012 06 15.27554 16 16 44.90 -17 13 09.8 19.9 V G96 – Mt. Lemmon Survey MPS 427223
2012 06 15.28075 16 16 44.58 -17 13 09.1 20.3 V G96 – Mt. Lemmon Survey MPS 427223
2012 06 15.29132 16 16 43.96 -17 13 08.7 20.5 V G96 – Mt. Lemmon Survey MPS 427223
2012 06 23.24593 16 09 16.45 -17 07 00.3 20.4 V G96 – Mt. Lemmon Survey MPS 428151
